Weather observations for the past three days for
Gulkana, Gulkana Airport
Imperial (Metric)
Date Time (akdt) Wind (mph) Vis. (mi.) Weather Sky Cond. Temperature (ºF) Relative Humidity Wind Chill (°F) Heat Index (°F) Pressure Precipitation (in)
Air Dwpt 6 hour altimeter (in) sea level (mb) 1 hr 3 hr 6 hr
Max. Min.
12 23:53 S 3 10.00 Overcast SCT033 BKN039 OVC049 46 44.1 93% 30.16 1022.5
12 22:53 S 6 10.00 Light Rain SCT033 OVC040 46 44.1 93% 44 30.16 1022.4 0.02
12 21:53 S 5 10.00 Light Rain FEW021 OVC033 46.9 45 48.9 46.9 93% 45 30.15 1022.0 0.03 0.16
12 20:53 SE 6 10.00 Light Rain OVC047 46.9 45 93% 45 30.13 1021.6 0.01
12 19:53 S 7 10.00 Light Rain FEW013 BKN030 OVC037 48 45 89% 45 30.12 1021.2 0.03
12 18:53 S 8 10.00 Light Rain BKN024 OVC032 48 45 89% 45 30.11 1020.8 0.09
12 17:53 S 9 10.00 Light Rain SCT026 BKN034 OVC048 48 45 89% 44 30.1 1020.5 0.02
12 16:53 SE 8 10.00 Light Rain SCT008 OVC048 48 46 93% 45 30.09 1020.2 0.07
12 15:53 SE 6 6.00 Rain Fog/Mist FEW025 OVC036 46.9 44.1 46.9 45 90% 45 30.09 1020.0 0.06 0.18
12 14:53 S 8 10.00 Light Rain BKN042 OVC049 46.9 44.1 90% 44 30.08 1019.5 0.06
12 13:53 SE 10 10.00 Light Rain BKN046 OVC050 46 43 89% 42 30.07 1019.2 0.01
12 12:53 SE 10 10.00 Light Rain BKN006 BKN037 OVC043 46 44.1 93% 42 30.05 1018.6 0.03 0.05
12 11:53 S 12 10.00 Light Rain FEW007 BKN037 OVC048 46 44.1 93% 41 30.04 1018.1 0.01
12 10:53 S 10 10.00 Light Rain FEW031 OVC046 46 44.1 93% 42 30.02 1017.3 0.01
12 09:53 S 10 10.00 Light Rain BKN040 OVC050 46 43 46 43 89% 42 30 1016.7 0.01 0.12
12 08:53 S 9 10.00 Light Rain FEW016 SCT034 OVC049 45 43 93% 41 29.99 1016.2 0.03
12 07:53 S 8 8.00 Light Rain FEW014 SCT026 OVC032 44.1 42.1 93% 40 29.98 1015.7 0.02
12 06:53 S 9 10.00 Light Rain FEW014 BKN037 OVC048 43 41 93% 38 29.95 1015.1 0.03 0.06
12 05:53 S 8 10.00 Light Rain BKN017 OVC026 43 41 93% 39 29.94 1014.5 0.03
12 03:53 S 7 10.00 Overcast OVC016 46 41 54 46 83% 43 29.9 1013.2
12 02:53 S 6 10.00 Overcast BKN015 OVC036 48 37.9 68% 46 29.89 1013.0
12 01:53 S 7 10.00 Overcast BKN047 OVC100 48 39 71% 45 29.88 1012.7
12 00:53 SW 6 10.00 Overcast FEW035 BKN042 OVC120 48.9 39.9 71% 47 29.87 1012.3
11 23:53 W 6 10.00 Partly Cloudy FEW035 SCT100 51.1 39.9 66% 29.85 1011.6
11 22:53 N 5 10.00 Overcast SCT041 SCT048 OVC110 53.1 44.1 72% 29.83 1011.0
11 21:53 NW 5 10.00 Partly Cloudy SCT100 54 43 60.1 52 67% 29.82 1010.4
11 20:53 N 7 10.00 Fair CLR 55.9 42.1 60% 29.8 1009.7
11 19:53 Calm 10.00 Fair CLR 57.9 39 50% 29.79 1009.1
11 18:53 S 9 10.00 Partly Cloudy SCT065 57 41 55% 29.78 1008.8
11 17:53 W 3 10.00 Fair CLR 55.9 42.1 60% 29.78 1009.0
11 16:53 S 7 10.00 Mostly Cloudy FEW028 BKN035 BKN042 54 43 67% 29.78 1009.0
11 15:53 SE 10 10.00 A Few Clouds FEW023 53.1 43 54 46 69% 29.78 1009.1 0.07
11 14:53 S 10 10.00 Overcast FEW014 SCT018 OVC080 48.9 44.1 83% 45 29.78 1009.2
11 13:53 S 13 10.00 Overcast FEW027 BKN070 OVC080 46.9 44.1 90% 42 29.77 1009.0
11 12:53 SE 14 10.00 Light Rain OVC060 46 44.1 93% 40 29.76 1008.4 0.03 0.07
11 11:53 SE 15 10.00 Light Rain OVC037 46 43 89% 40 29.75 1008.0 0.02
11 10:53 S 14 G 20 10.00 Light Rain OVC028 46 43 89% 40 29.73 1007.3 0.02
11 09:53 SE 13 10.00 Light Rain OVC026 46 43 48 45 89% 41 29.72 1006.7 0.01 0.01
11 08:53 S 10 10.00 Overcast OVC027 46.9 41 80% 43 29.71 1006.4
11 07:53 S 10 10.00 Overcast BKN036 OVC060 48 39.9 74% 44 29.7 1005.9
11 06:53 S 9 10.00 Overcast OVC065 48 39.9 74% 44 29.69 1005.6
11 05:53 S 15 G 21 10.00 Overcast OVC060 48 39 71% 43 29.69 1005.6
11 04:53 S 8 10.00 Overcast OVC065 48 39.9 74% 45 29.69 1005.4
11 03:53 S 7 10.00 Light Rain OVC065 48 41 59 48 77% 45 29.69 1005.5
11 02:53 S 9 10.00 Overcast OVC070 51.1 37.9 61% 29.68 1005.2
11 01:53 S 7 10.00 Overcast OVC080 52 37 57% 29.68 1005.2
11 00:53 S 7 10.00 Overcast OVC085 53.1 37 55% 29.68 1005.1
10 23:53 SE 3 10.00 Overcast OVC085 54 37 53% 29.68 1005.2
10 22:53 Calm 10.00 Overcast OVC085 57 39 51% 29.67 1004.9
10 20:53 SE 5 10.00 Partly Cloudy SCT120 60.1 36 41% 29.66 1004.5
10 19:53 E 5 10.00 A Few Clouds FEW120 64 34 33% 29.66 1004.5
10 18:53 SE 5 10.00 Fair CLR 63 35.1 35% 29.67 1004.8
10 17:53 SE 9 10.00 A Few Clouds FEW110 63 36 37% 29.69 1005.3
10 16:53 SE 12 10.00 Fair CLR 62.1 37 40% 29.7 1005.8
10 15:53 S 6 10.00 A Few Clouds FEW110 62.1 37 64 48.9 40% 29.71 1006.1
10 13:53 S 10 G 22 10.00 Overcast OVC110 59 37 44% 29.75 1007.4
10 12:53 S 14 10.00 Overcast OVC100 57 37 47% 29.76 1007.9
10 11:53 S 14 10.00 Overcast OVC100 54 37.9 55% 29.77 1008.4
10 10:53 S 8 10.00 Overcast OVC085 51.1 39.9 66% 29.78 1008.8
10 09:53 S 9 10.00 Overcast OVC080 48.9 39 51.1 48.9 69% 45 29.78 1008.8
10 08:53 S 9 10.00 Overcast OVC080 48.9 39 69% 45 29.79 1008.7
10 07:53 S 10 10.00 Overcast OVC080 48.9 37.9 66% 45 29.78 1008.4
10 06:53 S 10 10.00 Overcast OVC070 50 39 66% 46 29.78 1008.2
10 05:53 SE 12 10.00 Overcast OVC075 51.1 37.9 61% 29.78 1008.0
10 04:53 SE 14 G 22 10.00 Overcast FEW060 OVC075 51.1 37 59% 29.77 1007.8
10 03:53 SE 16 10.00 Overcast OVC080 51.1 37.9 61 51.1 61% 29.76 1007.5
10 02:53 SE 12 10.00 Overcast OVC080 52 37.9 59% 29.76 1007.6
10 01:53 SE 12 10.00 Overcast BKN100 OVC110 52 37.9 59% 29.76 1007.6
10 00:53 SE 9 10.00 Mostly Cloudy BKN100 52 37 57% 29.77 1007.7
Date Time (akdt) Wind (mph) Vis. (mi.) Weather Sky Cond. Air Dwpt Max. Min. Relative Humidity Wind Chill (°F) Heat Index (°F) altimeter (in) sea level (mb) 1 hr 3 hr 6 hr
6 hour
Temperature (ºF) Pressure Precipitation (in)